This is the latest recevied weather packets stored in our database for station/object DB0OHA-10. If no packets are shown the sender has not sent any weather packets the latest 10 day(s).
| Time | Temp. | Humidity | Pressure | Rain* | Wind** | Luminosity | Snow |
|---|---|---|---|---|---|---|---|
| 1777707916 | 18.33° C | 49% | 1021.1 hPa | 0 mm | - | 517 W/m² | - |
| 1777707016 | 17.78° C | 50% | 1021.2 hPa | 0 mm | - | 485 W/m² | - |
| 1777706117 | 17.78° C | 51% | 1021.1 hPa | 0 mm | - | 436 W/m² | - |
| 1777705223 | 17.22° C | 53% | 1021.2 hPa | 0 mm | - | 362 W/m² | - |
| 1777705217 | 17.22° C | 53% | 1021.2 hPa | 0 mm | - | 362 W/m² | - |
| 1777704317 | 16.67° C | 54% | 1021.3 hPa | 0 mm | - | 279 W/m² | - |
| 1777703416 | 16.11° C | 57% | 1021.4 hPa | 0 mm | - | 274 W/m² | - |
| 1777702516 | 13.89° C | 61% | 1021.3 hPa | 0 mm | - | 250 W/m² | - |
| 1777701617 | 12.78° C | 63% | 1021.4 hPa | 0 mm | - | 197 W/m² | - |
| 1777700717 | 12.22° C | 63% | 1021.4 hPa | 0 mm | - | 26 W/m² | - |
| 1777699822 | 11.67° C | 63% | 1021.5 hPa | 0 mm | - | 25 W/m² | - |
| 1777699817 | 11.67° C | 63% | 1021.5 hPa | 0 mm | - | 25 W/m² | - |
| 1777698922 | 11.11° C | 63% | 1021.5 hPa | 0 mm | - | 23 W/m² | - |
| 1777698917 | 11.11° C | 63% | 1021.5 hPa | 0 mm | - | 23 W/m² | - |
| 1777698017 | 10.56° C | 64% | 1021.5 hPa | 0 mm | - | 19 W/m² | - |
| 1777697122 | 11.11° C | 64% | 1021.6 hPa | 0 mm | - | 18 W/m² | - |
| 1777697117 | 11.11° C | 64% | 1021.6 hPa | 0 mm | - | 18 W/m² | - |
| 1777696221 | 11.11° C | 64% | 1021.5 hPa | 0 mm | - | 14 W/m² | - |
| 1777696217 | 11.11° C | 64% | 1021.5 hPa | 0 mm | - | 14 W/m² | - |
| 1777695317 | 11.11° C | 64% | 1021.5 hPa | 0 mm | - | 11 W/m² | - |
| 1777694417 | 11.11° C | 64% | 1021.6 hPa | 0 mm | - | 7 W/m² | - |
| 1777693522 | 11.11° C | 64% | 1021.6 hPa | 0 mm | - | 0 W/m² | - |
| 1777693517 | 11.11° C | 64% | 1021.6 hPa | 0 mm | - | 0 W/m² | - |
| 1777692617 | 11.11° C | 64% | 1021.7 hPa | 0 mm | - | 0 W/m² | - |
| 1777691717 | 11.11° C | 64% | 1021.8 hPa | 0 mm | - | 0 W/m² | - |
* Rain latest hour (hover to see other rain measurements)
** Current wind speed in m/s (hover to see current wind gust speed)